Tillbaka till svenska Fidonet
English   Information   Debug  
FILM   0/18
FNEWS_PUBLISH   4990
FN_SYSOP   42232
FN_SYSOP_OLD1   71952
FTP_FIDO   0/2
FTSC_PUBLIC   0/13977
FUNNY   0/4886
GENEALOGY.EUR   0/71
GET_INFO   105
GOLDED   0/408
HAM   12912/16731
HOLYSMOKE   0/6791
HOT_SITES   0/1
HTMLEDIT   0/71
HUB203   466
HUB_100   264
HUB_400   39
HUMOR   0/29
IC   0/2851
INTERNET   0/424
INTERUSER   0/3
IP_CONNECT   719
JAMNNTPD   0/233
JAMTLAND   0/47
KATTY_KORNER   0/41
LAN   0/16
LINUX-USER   0/19
LINUXHELP   0/1155
LINUX   0/22397
LINUX_BBS   0/957
mail   18.68
mail_fore_ok   249
MENSA   0/341
MODERATOR   0/102
MONTE   0/992
MOSCOW_OKLAHOMA   0/1245
MUFFIN   0/783
MUSIC   0/321
N203_STAT   938
N203_SYSCHAT   313
NET203   321
NET204   69
NET_DEV   0/10
NORD.ADMIN   0/101
NORD.CHAT   0/2572
NORD.FIDONET   189
NORD.HARDWARE   0/28
NORD.KULTUR   0/114
NORD.PROG   0/32
NORD.SOFTWARE   0/88
NORD.TEKNIK   0/58
NORD   0/453
OCCULT_CHAT   0/93
OS2BBS   0/787
OS2DOSBBS   0/580
OS2HW   0/42
OS2INET   0/37
OS2LAN   0/134
OS2PROG   0/36
OS2REXX   0/113
OS2USER-L   207
OS2   0/4831
OSDEBATE   0/18996
PASCAL   0/490
PERL   0/457
PHP   0/45
POINTS   90/405
POLITICS   0/29554
POL_INC   10922/14731
PSION   103
R20_ADMIN   1133
R20_AMATORRADIO   0/2
R20_BEST_OF_FIDONET   16
R20_CHAT   0/897
R20_DEPP   0/3
R20_DEV   400
R20_ECHO2   1894
R20_ECHOPRES   0/35
R20_ESTAT   0/719
R20_FIDONETPROG...
...RAM.MYPOINT
  0/2
R20_FIDONETPROGRAM   0/22
R20_FIDONET   0/248
R20_FILEFIND   0/24
R20_FILEFOUND   0/22
R20_HIFI   0/3
R20_INFO2   3786
R20_INTERNET   0/12940
R20_INTRESSE   0/60
R20_INTR_KOM   0/99
R20_KANDIDAT.CHAT   42
R20_KANDIDAT   28
R20_KOM_DEV   112
R20_KONTROLL   0/13360
R20_KORSET   0/18
R20_LOKALTRAFIK   0/24
R20_MODERATOR   0/1852
R20_NC   76
R20_NET200   245
R20_NETWORK.OTH...
...ERNETS
  0/13
R20_OPERATIVSYS...
...TEM.LINUX
  0/44
R20_PROGRAMVAROR   0/1
R20_REC2NEC   534
R20_SFOSM   0/341
R20_SF   0/108
R20_SPRAK.ENGLISH   0/1
R20_SQUISH   107
R20_TEST   2
R20_WORST_OF_FIDONET   20
RAR   0/9
RA_MULTI   106
RA_UTIL   0/162
REGCON.EUR   0/2069
REGCON   0/13
SCIENCE   0/1206
SF   0/239
SHAREWARE_SUPPORT   0/5146
SHAREWRE   0/14
SIMPSONS   0/169
STATS_OLD1   0/2539.065
STATS_OLD2   0/2530
STATS_OLD3   0/2395.095
STATS_OLD4   0/1692.25
SURVIVOR   0/495
SYSOPS_CORNER   0/3
SYSOP   0/84
TAGLINES   0/112
TEAMOS2   0/4530
TECH   0/2617
TEST.444   0/105
TRAPDOOR   0/19
TREK   0/755
TUB   0/290
UFO   0/40
UNIX   0/1316
USA_EURLINK   0/102
USR_MODEMS   0/1
VATICAN   0/2740
VIETNAM_VETS   0/14
VIRUS   0/378
VIRUS_INFO   0/201
VISUAL_BASIC   0/473
WHITEHOUSE   0/5187
WIN2000   0/101
WIN32   0/30
WIN95   2910/4291
WIN95_OLD1   0/70272
WINDOWS   0/1517
WWB_SYSOP   0/419
WWB_TECH   0/810
ZCC-PUBLIC   0/1
ZEC   4

 
4DOS   0/134
ABORTION   0/7
ALASKA_CHAT   0/506
ALLFIX_FILE   0/1313
ALLFIX_FILE_OLD1   0/7997
ALT_DOS   0/152
AMATEUR_RADIO   0/1039
AMIGASALE   0/14
AMIGA   0/331
AMIGA_INT   0/1
AMIGA_PROG   0/20
AMIGA_SYSOP   0/26
ANIME   0/15
ARGUS   0/924
ASCII_ART   0/340
ASIAN_LINK   0/651
ASTRONOMY   0/417
AUDIO   0/92
AUTOMOBILE_RACING   0/105
BABYLON5   0/17862
BAG   135
BATPOWER   0/361
BBBS.ENGLISH   0/382
BBSLAW   0/109
BBS_ADS   0/5290
BBS_INTERNET   0/507
BIBLE   0/3563
BINKD   0/1119
BINKLEY   0/215
BLUEWAVE   0/2173
CABLE_MODEMS   0/25
CBM   0/46
CDRECORD   0/66
CDROM   0/20
CLASSIC_COMPUTER   0/378
COMICS   0/15
CONSPRCY   0/899
COOKING   42055
COOKING_OLD1   0/24719
COOKING_OLD2   0/40862
COOKING_OLD3   0/37489
COOKING_OLD4   0/35496
COOKING_OLD5   9370
C_ECHO   0/189
C_PLUSPLUS   0/31
DIRTY_DOZEN   0/201
DOORGAMES   0/2333
DOS_INTERNET   0/196
duplikat   6102
ECHOLIST   0/18295
EC_SUPPORT   0/318
ELECTRONICS   0/359
ELEKTRONIK.GER   1534
ENET.LINGUISTIC   0/13
ENET.POLITICS   0/4
ENET.SOFT   0/11701
ENET.SYSOP   34336
ENET.TALKS   0/32
ENGLISH_TUTOR   0/2000
EVOLUTION   1087/1335
FDECHO   0/217
FDN_ANNOUNCE   3651/7068
FIDONEWS   25129
FIDONEWS_OLD1   0/49742
FIDONEWS_OLD2   0/35949
FIDONEWS_OLD3   0/30874
FIDONEWS_OLD4   0/37224
FIDO_SYSOP   12973
FIDO_UTIL   0/180
FILEFIND   0/209
FILEGATE   0/212
Möte HAM, 16731 texter
 lista första sista föregående nästa
Text 5270, 979 rader
Skriven 2012-05-10 23:00:54 av Amsat List (1:323/120.0)
Ärende: [keps] orb12131.amsa
============================
[keps] orb12131.amsa

Sender: keps-bounces@amsat.org
Return-Path: <keps-bounces@amsat.org>
X-Rcpt: craig.healy@chowda.com
X-UIDL: 1336703910.271

SB KEPS @ AMSAT  $ORB12131.O
Orbital Elements  12131.OSCAR

HR AMSAT ORBITAL ELEMENTS FOR OSCAR SATELLITES
FROM WA5QGD FORT WORTH,TX May 10, 2012
Send SUBSCRIBE KEPS/UNSUBSCRIBE KEPS to majordomo@amsat.org only
BID: ORB12131.O
TO ALL RADIO AMATEURS BT

Satellite: AO-07
Catalog number: 07530
Epoch time:      12130.51946505
Element set:    0378
Inclination:      101.4003 deg
RA of node:       129.2234 deg
Eccentricity:    0.0011992
Arg of perigee:   359.6104 deg
Mean anomaly:     000.4961 deg
Mean motion:   12.53589205 rev/day
Decay rate:       -2.7e-07 rev/day^2
Epoch rev:           71520
Checksum:              260

Satellite: FO-29
Catalog number: 24278
Epoch time:      12130.80587858
Element set:    0842
Inclination:      098.5832 deg
RA of node:       236.4872 deg
Eccentricity:    0.0351033
Arg of perigee:   128.6072 deg
Mean anomaly:     234.7054 deg
Mean motion:   13.52982159 rev/day
Decay rate:       -4.1e-07 rev/day^2
Epoch rev:           77676
Checksum:              332

Satellite: SO-33
Catalog number: 25509
Epoch time:      12130.55954818
Element set:    0230
Inclination:      031.4331 deg
RA of node:       192.2909 deg
Eccentricity:    0.0352940
Arg of perigee:   225.3348 deg
Mean anomaly:     131.7994 deg
Mean motion:   14.28725504 rev/day
Decay rate:       4.96e-06 rev/day^2
Epoch rev:           70712
Checksum:              299

Satellite: RS-22
Catalog number: 27939
Epoch time:      12131.74863048
Element set:     342
Inclination:      097.8148 deg
RA of node:       334.4814 deg
Eccentricity:    0.0013935
Arg of perigee:   028.4165 deg
Mean anomaly:     331.7796 deg
Mean motion:   14.63999574 rev/day
Decay rate:       4.65e-06 rev/day^2
Epoch rev:           46040
Checksum:              334

Satellite: VO-52
Catalog number: 28650
Epoch time:      12130.59400050
Element set:      97
Inclination:      097.5996 deg
RA of node:       163.4327 deg
Eccentricity:    0.0026728
Arg of perigee:   165.1933 deg
Mean anomaly:     195.0074 deg
Mean motion:   14.82880770 rev/day
Decay rate:      1.250e-05 rev/day^2
Epoch rev:           37925
Checksum:              312

Satellite: HO-68
Catalog number: 36122
Epoch time:      12131.21175680
Element set:     448
Inclination:      100.3641 deg
RA of node:       191.3188 deg
Eccentricity:    0.0007348
Arg of perigee:   193.7359 deg
Mean anomaly:     166.3569 deg
Mean motion:   13.16295094 rev/day
Decay rate:       -4.4e-07 rev/day^2
Epoch rev:           11539
Checksum:              302

/EX
SB KEPS @ AMSAT  $ORB12131.D
Orbital Elements  12131.MICROS

HR AMSAT ORBITAL ELEMENTS FOR THE MICROSATS
FROM WA5QGD FORT WORTH,TX May 10, 2012
Send SUBSCRIBE KEPS/UNSUBSCRIBE KEPS to majordomo@amsat.org only
BID: ORB12131.D
TO ALL RADIO AMATEURS BT

Satellite: UO-11
Catalog number: 14781
Epoch time:      12130.93331720
Element set:    0873
Inclination:      097.9559 deg
RA of node:       190.7822 deg
Eccentricity:    0.0009387
Arg of perigee:   150.7399 deg
Mean anomaly:     209.4343 deg
Mean motion:   14.80414107 rev/day
Decay rate:       5.51e-06 rev/day^2
Epoch rev:           51427
Checksum:              305

Satellite: AO-16
Catalog number: 20439
Epoch time:      12130.86854826
Element set:    0472
Inclination:      098.4277 deg
RA of node:       075.3216 deg
Eccentricity:    0.0010054
Arg of perigee:   275.0691 deg
Mean anomaly:     084.9343 deg
Mean motion:   14.32046164 rev/day
Decay rate:        8.0e-07 rev/day^2
Epoch rev:           16451
Checksum:              291

Satellite: LO-19
Catalog number: 20442
Epoch time:      12130.89736715
Element set:    0389
Inclination:      098.3932 deg
RA of node:       078.4891 deg
Eccentricity:    0.0010975
Arg of perigee:   264.6321 deg
Mean anomaly:     095.3603 deg
Mean motion:   14.32264934 rev/day
Decay rate:        8.3e-07 rev/day^2
Epoch rev:           16470
Checksum:              316

Satellite: AO-27
Catalog number: 22825
Epoch time:      12130.88788801
Element set:    0100
Inclination:      098.5726 deg
RA of node:       074.3043 deg
Eccentricity:    0.0008942
Arg of perigee:   037.3457 deg
Mean anomaly:     322.8341 deg
Mean motion:   14.29453918 rev/day
Decay rate:        8.9e-07 rev/day^2
Epoch rev:           97100
Checksum:              308

Satellite: IO-26
Catalog number: 22826
Epoch time:      12130.89609414
Element set:     848
Inclination:      098.5668 deg
RA of node:       074.6926 deg
Eccentricity:    0.0009497
Arg of perigee:   031.2282 deg
Mean anomaly:     328.9462 deg
Mean motion:   14.29727323 rev/day
Decay rate:        8.7e-07 rev/day^2
Epoch rev:           97113
Checksum:              340

Satellite: GO-32
Catalog number: 25397
Epoch time:      12130.59169200
Element set:     770
Inclination:      098.3589 deg
RA of node:       111.2072 deg
Eccentricity:    0.0001973
Arg of perigee:   060.9554 deg
Mean anomaly:     299.1811 deg
Mean motion:   14.23271334 rev/day
Decay rate:      -1.58e-06 rev/day^2
Epoch rev:           71853
Checksum:              299

Satellite: NO-44
Catalog number: 26931
Epoch time:      12130.70803345
Element set:      35
Inclination:      067.0530 deg
RA of node:       219.5119 deg
Eccentricity:    0.0007365
Arg of perigee:   270.4438 deg
Mean anomaly:     089.5817 deg
Mean motion:   14.29790386 rev/day
Decay rate:       -4.6e-07 rev/day^2
Epoch rev:           55374
Checksum:              305

